TimeEST,TemperatureF,Dew PointF,Humidity,Sea Level PressureIn,VisibilityMPH,Wind Direction,Wind SpeedMPH,Gust SpeedMPH,PrecipitationIn,Events,Conditions,WindDirDegrees,DateUTC
12:00 AM,35.6,21.2,56,30.25,5.0,WSW,18.4,-,N/A,,Haze,240,2012-11-28 05:00:00
12:01 AM,35.6,23.0,60,30.25,7.0,SW,18.4,-,N/A,,Overcast,230,2012-11-28 05:01:00
1:00 AM,33,22,53,30.24,10,WSW,15.0,,,,,250,2012-11-28 06:00:00
1:00 AM,33.8,23.0,65,30.24,9.0,WSW,15.0,-,N/A,,Scattered Clouds,250,2012-11-28 06:00:00
2:00 AM,32.0,23.0,69,30.23,9.0,WSW,15.0,-,N/A,,Clear,250,2012-11-28 07:00:00
3:00 AM,32.0,21.2,64,30.22,9.0,West,13.8,-,N/A,,Overcast,270,2012-11-28 08:00:00
4:00 AM,32.0,19.4,60,30.20,9.0,WNW,11.5,-,N/A,,Overcast,290,2012-11-28 09:00:00
5:00 AM,33.8,21.2,60,30.20,9.0,WSW,16.1,-,N/A,,Overcast,250,2012-11-28 10:00:00
6:00 AM,32.0,21.2,64,30.18,9.0,WSW,15.0,-,N/A,,Mostly Cloudy,250,2012-11-28 11:00:00
6:18 AM,33.8,19.4,56,30.18,4.0,West,16.1,-,N/A,,Haze,270,2012-11-28 11:18:00
6:19 AM,33.8,19.4,56,30.17,2.5,West,16.1,-,N/A,,Haze,270,2012-11-28 11:19:00
6:28 AM,33.8,21.2,60,30.18,4.0,West,16.1,-,N/A,,Haze,260,2012-11-28 11:28:00
6:29 AM,33.8,19.4,56,30.17,9.0,West,18.4,-,N/A,,Overcast,260,2012-11-28 11:29:00
7:00 AM,34,22,48,30.18,10,WSW,17.3,,,,Overcast,240,2012-11-28 12:00:00
7:00 AM,33.8,21.2,60,30.18,9.0,WSW,19.6,-,N/A,,Overcast,240,2012-11-28 12:00:00
8:00 AM,35.6,23.0,60,30.17,9.0,SW,19.6,28.8,N/A,,Overcast,230,2012-11-28 13:00:00
9:00 AM,33.8,23.0,65,30.17,9.0,WSW,18.4,25.3,N/A,,Overcast,240,2012-11-28 14:00:00
10:00 AM,33.8,23.0,65,30.18,9.0,WSW,20.7,-,N/A,,Overcast,250,2012-11-28 15:00:00
11:00 AM,35.6,24.8,65,30.18,9.0,WSW,18.4,-,N/A,,Overcast,240,2012-11-28 16:00:00
12:00 PM,37.4,24.8,60,30.17,9.0,WSW,17.3,-,N/A,,Overcast,250,2012-11-28 17:00:00
1:00 PM,38,25,47,30.16,10,West,20.7,,,,Overcast,260,2012-11-28 18:00:00
1:00 PM,37.4,24.8,60,30.16,9.0,West,18.4,31.1,N/A,,Overcast,260,2012-11-28 18:00:00
2:00 PM,39.2,28.4,65,30.15,9.0,WSW,21.9,28.8,N/A,,Mostly Cloudy,250,2012-11-28 19:00:00
3:00 PM,37.4,28.4,70,30.16,9.0,WSW,21.9,-,N/A,,Mostly Cloudy,240,2012-11-28 20:00:00
3:12 PM,37.4,28.4,70,30.16,9.0,WSW,19.6,-,N/A,Rain,Light Rain,250,2012-11-28 20:12:00
3:30 PM,37.4,26.6,65,30.17,9.0,West,16.1,23.0,N/A,,Overcast,260,2012-11-28 20:30:00
4:00 PM,37.4,23.0,56,30.17,9.0,West,20.7,28.8,N/A,,Overcast,270,2012-11-28 21:00:00
4:28 PM,37.4,26.6,65,30.18,9.0,West,16.1,24.2,N/A,Rain,Light Rain,260,2012-11-28 21:28:00
4:38 PM,35.6,26.6,70,30.19,9.0,West,19.6,-,N/A,,Mostly Cloudy,270,2012-11-28 21:38:00
5:00 PM,35.6,26.6,70,30.20,9.0,West,13.8,19.6,N/A,,Overcast,270,2012-11-28 22:00:00
5:53 PM,37.4,26.6,65,30.22,9.0,West,16.1,25.3,N/A,Rain,Light Rain,260,2012-11-28 22:53:00
5:59 PM,35.6,24.8,65,30.22,9.0,West,20.7,-,N/A,Rain,Light Rain,260,2012-11-28 22:59:00
6:00 PM,35.6,26.6,70,30.22,9.0,West,19.6,-,N/A,Rain,Light Rain,260,2012-11-28 23:00:00
6:08 PM,37.4,26.6,65,30.22,9.0,West,17.3,26.5,N/A,Rain,Light Rain,260,2012-11-28 23:08:00
6:15 PM,37.4,26.6,65,30.22,9.0,West,19.6,-,N/A,,Overcast,260,2012-11-28 23:15:00
6:18 PM,37.4,24.8,60,30.23,9.0,West,18.4,-,N/A,Rain,Light Rain,260,2012-11-28 23:18:00
7:00 PM,36,26,56,30.24,10,West,16.1,,,Rain,Light Rain,280,2012-11-29 00:00:00
7:00 PM,35.6,26.6,70,30.24,9.0,West,15.0,-,N/A,Rain,Light Rain,280,2012-11-29 00:00:00
7:12 PM,35.6,26.6,70,30.24,9.0,West,15.0,-,N/A,Rain,Light Rain,280,2012-11-29 00:12:00
7:17 PM,35.6,26.6,70,30.24,9.0,West,15.0,-,N/A,,Overcast,280,2012-11-29 00:17:00
7:36 PM,35.6,28.4,75,30.24,8.0,West,12.7,19.6,N/A,Snow,Light Snow,280,2012-11-29 00:36:00
7:41 PM,35.6,26.6,70,30.25,8.0,West,11.5,-,N/A,Snow,Light Snow,270,2012-11-29 00:41:00
8:00 PM,33.8,28.4,81,30.25,9.0,West,17.3,24.2,N/A,Snow,Light Snow,270,2012-11-29 01:00:00
8:20 PM,33.8,28.4,81,30.25,5.0,WNW,12.7,-,N/A,Snow,Light Snow,290,2012-11-29 01:20:00
8:30 PM,33.8,28.4,81,30.25,7.0,NW,13.8,-,N/A,Snow,Light Snow,310,2012-11-29 01:30:00
8:35 PM,33.8,28.4,81,30.25,9.0,WNW,11.5,-,N/A,Snow,Light Snow,290,2012-11-29 01:35:00
8:38 PM,33.8,28.4,81,30.25,9.0,WNW,10.4,-,N/A,Rain-Snow,Light Snow,290,2012-11-29 01:38:00
8:40 PM,33.8,28.4,81,30.25,9.0,WNW,9.2,-,N/A,Rain,Light Rain,290,2012-11-29 01:40:00
8:43 PM,33.8,28.4,81,30.25,9.0,WNW,8.1,-,N/A,Rain,Light Rain,290,2012-11-29 01:43:00
9:00 PM,33.8,28.4,81,30.25,9.0,WNW,8.1,-,N/A,Rain,Light Rain,290,2012-11-29 02:00:00
9:04 PM,33.8,28.4,81,30.25,9.0,West,8.1,-,N/A,,Overcast,280,2012-11-29 02:04:00
10:00 PM,35.6,26.6,70,30.25,9.0,West,10.4,20.7,N/A,,Overcast,270,2012-11-29 03:00:00
11:00 PM,35.6,23.0,60,30.25,9.0,WSW,15.0,-,N/A,,Overcast,250,2012-11-29 04:00:00